This is the latest recevied weather packets stored in our database for station/object 4S6DRJ-13. If no packets are shown the sender has not sent any weather packets the latest 10 day(s).
| Time | Temp. | Humidity | Pressure | Rain* | Wind** | Luminosity | Snow |
|---|---|---|---|---|---|---|---|
| 1787632285 | 30° C | 75% | 1011.8 hPa | 0 mm | 1.34 m/s, 254° | 507 W/m² | - |
| 1787632223 | 30° C | 76% | 1011.7 hPa | 0 mm | 0.89 m/s, 222° | 624 W/m² | - |
| 1787632162 | 30.56° C | 75% | 1011.7 hPa | 0 mm | 0.89 m/s, 218° | 728 W/m² | - |
| 1787632101 | 30.56° C | 75% | 1011.7 hPa | 0 mm | 3.13 m/s, 217° | 1108 W/m² | - |
| 1787632040 | 30.56° C | 76% | 1011.6 hPa | 0 mm | 1.79 m/s, 38° | 996 W/m² | - |
| 1787631979 | 30° C | 76% | 1011.6 hPa | 0 mm | 2.24 m/s, 212° | 274 W/m² | - |
| 1787631918 | 30° C | 77% | 1011.7 hPa | 0 mm | 0.89 m/s, 229° | 654 W/m² | - |
| 1787631857 | 30° C | 77% | 1011.7 hPa | 0 mm | 0.89 m/s, 206° | 982 W/m² | - |
| 1787631796 | 30° C | 76% | 1011.6 hPa | 0 mm | 0.89 m/s, 226° | 965 W/m² | - |
| 1787631735 | 30° C | 76% | 1011.6 hPa | 0 mm | 1.79 m/s, 256° | 881 W/m² | - |
| 1787631674 | 30° C | 76% | 1011.7 hPa | 0 mm | 2.24 m/s, 33° | 852 W/m² | - |
| 1787631613 | 30° C | 76% | 1011.7 hPa | 0 mm | 1.79 m/s, 256° | 879 W/m² | - |
| 1787631552 | 30° C | 76% | 1011.7 hPa | 0 mm | 1.79 m/s, 276° | 920 W/m² | - |
| 1787631491 | 30° C | 77% | 1011.7 hPa | 0 mm | 0 m/s | 933 W/m² | - |
| 1787631430 | 30° C | 77% | 1011.7 hPa | 0 mm | 0.45 m/s, 217° | 787 W/m² | - |
| 1787631369 | 30° C | 77% | 1011.7 hPa | 0 mm | 0.45 m/s, 295° | 908 W/m² | - |
| 1787631308 | 30° C | 77% | 1011.7 hPa | 0 mm | 1.34 m/s, 225° | 887 W/m² | - |
| 1787631248 | 30° C | 77% | 1011.7 hPa | 0 mm | 1.34 m/s, 175° | 937 W/m² | - |
| 1787631186 | 30° C | 77% | 1011.5 hPa | 0 mm | 0.89 m/s, 280° | 929 W/m² | - |
| 1787631125 | 30° C | 76% | 1011.6 hPa | 0 mm | 1.34 m/s, 295° | 903 W/m² | - |
| 1787631064 | 30° C | 77% | 1011.7 hPa | 0 mm | 1.79 m/s, 179° | 904 W/m² | - |
| 1787631003 | 30° C | 77% | 1011.7 hPa | 0 mm | 1.34 m/s, 260° | 260 W/m² | - |
| 1787630942 | 30° C | 76% | 1011.5 hPa | 0 mm | 0.45 m/s, 228° | 916 W/m² | - |
| 1787630881 | 30° C | 75% | 1011.5 hPa | 0 mm | 2.24 m/s, 238° | 895 W/m² | - |
| 1787630820 | 30° C | 76% | 1011.4 hPa | 0 mm | 2.68 m/s, 223° | 883 W/m² | - |
* Rain latest hour (hover to see other rain measurements)
** Current wind speed in m/s (hover to see current wind gust speed)